FW1757 Weather Reports


time (UTC)temp
C
wind
direction
speed
KPH
gust
KPH
rain 1hr
cm
rain 24hr
cm
rain mn
cm
humidity
%
barometer
mb
20260504025030 26 145 0.0 0.0 0.00 0.00 0.00 37 1005.6
20260504024527 27 145 0.0 0.0 0.00 0.00 0.00 35 1005.7
20260504024025 28 145 0.0 0.0 0.00 0.00 0.00 37 1005.7
20260504023524 28 145 0.0 0.0 0.00 0.00 0.00 36 1005.6
20260504023025 28 145 0.0 0.0 0.00 0.00 0.00 31 1005.6
20260504022521 29 145 0.0 0.0 0.00 0.00 0.00 30 1005.6
20260504022018 29 145 0.0 0.0 0.00 0.00 0.00 28 1005.7
20260504021517 30 146 0.0 0.0 0.00 0.00 0.00 27 1005.7
20260504021016 30 146 0.0 0.0 0.00 0.00 0.00 27 1005.8
20260504020514 30 146 0.0 0.0 0.00 0.00 0.00 27 1005.9
20260504020013 30 146 0.0 0.0 0.00 0.00 0.00 28 1005.9
20260504015513 31 146 0.0 0.0 0.00 0.00 0.00 27 1005.9
20260504015010 31 146 0.0 0.0 0.00 0.00 0.00 26 1006.0
20260504014524 31 143 0.0 0.0 0.00 0.00 0.00 27 1006.0
20260504014010 31 142 0.0 0.0 0.00 0.00 0.00 27 1006.1
20260504013506 31 142 0.0 0.0 0.00 0.00 0.00 26 1006.1
20260504013005 31 144 0.0 0.0 0.00 0.00 0.00 26 1006.2
20260504012503 31 144 0.0 0.0 0.00 0.00 0.00 25 1006.2
20260504012002 31 142 0.0 0.0 0.00 0.00 0.00 25 1006.2
20260504011601 31 140 0.0 0.0 0.00 0.00 0.00 25 1006.3
20260504011059 32 140 0.0 0.0 0.00 0.00 0.00 24 1006.3
20260504010557 32 149 0.0 0.0 0.00 0.00 0.00 24 1006.4
20260504010111 32 142 0.0 0.0 0.00 0.00 0.00 23 1006.6
20260504005559 32 62 0.0 0.0 0.00 0.00 0.00 25 1006.6
20260504005053 32 46 0.0 0.0 0.00 0.00 0.00 25 1006.6
20260504004612 32 42 0.0 0.0 0.00 0.00 0.00 25 1006.7
20260504004052 32 36 0.0 0.0 0.00 0.00 0.00 26 1006.8
20260504003552 32 134 0.0 0.0 0.00 0.00 0.00 25 1006.8
20260504003047 32 138 0.0 0.0 0.00 0.00 0.00 25 1006.8
20260504002546 32 138 0.0 0.0 0.00 0.00 0.00 25 1006.8
20260504002045 32 138 0.0 0.0 0.00 0.00 0.00 24 1006.8
20260504001544 32 142 0.0 0.0 0.00 0.00 0.00 24 1006.9
20260504001042 32 85 0.0 0.0 0.00 0.00 0.00 26 1007.0
20260504000541 32 61 0.0 0.0 0.00 0.00 0.00 26 1007.0
20260504000039 32 53 0.0 0.0 0.00 0.00 0.00 24 1007.0
20260503235537 32 36 0.0 0.0 0.00 0.00 0.00 25 1007.1
20260503235036 32 48 0.0 0.0 0.00 0.00 0.00 25 1007.1
20260503234541 32 28 0.0 0.0 0.00 0.00 0.00 25 1007.1
20260503234033 32 82 0.0 0.0 0.00 0.00 0.00 25 1007.2
20260503233531 32 85 0.0 0.0 0.00 0.00 0.00 25 1007.2
20260503233030 32 76 0.0 0.0 0.00 0.00 0.00 26 1007.3
20260503232528 32 80 0.0 0.0 0.00 0.00 0.00 25 1007.4
20260503232027 32 78 0.0 0.0 0.00 0.00 0.00 26 1007.6
20260503231530 32 73 0.0 0.0 0.00 0.00 0.00 28 1007.5
20260503231025 32 161 0.0 0.0 0.00 0.00 0.00 27 1007.7
20260503230523 32 160 0.0 0.0 0.00 0.00 0.00 26 1007.7
20260503230021 32 177 0.0 0.0 0.00 0.00 0.00 24 1007.8
20260503225520 31 157 0.0 0.0 0.00 0.00 0.00 26 1007.9
20260503225019 31 166 0.0 0.0 0.00 0.00 0.00 26 1008.1
20260503224517 31 93 0.0 0.0 0.00 0.00 0.00 25 1008.2
20260503224015 31 119 0.0 0.0 0.00 0.00 0.00 27 1008.2
20260503223513 31 161 0.0 0.0 0.00 0.00 0.00 28 1008.4
20260503223113 31 144 0.0 0.0 0.00 0.00 0.00 26 1008.4
20260503222510 31 136 0.0 0.0 0.00 0.00 0.00 28 1008.6
20260503222009 31 84 0.0 0.0 0.00 0.00 0.00 30 1008.6
20260503221508 31 74 0.0 0.0 0.00 0.00 0.00 30 1008.9
20260503221006 31 95 0.0 0.0 0.00 0.00 0.00 27 1008.8
20260503220508 31 119 0.0 0.0 0.00 0.00 0.00 26 1008.9
20260503220004 31 62 0.0 0.0 0.00 0.00 0.00 26 1008.9
20260503215501 31 62 0.0 0.0 0.00 0.00 0.00 29 1009.0
20260503215100 30 157 0.0 0.0 0.00 0.00 0.00 27 1009.0
20260503214601 30 114 0.0 0.0 0.00 0.00 0.00 29 1009.1
20260503214100 30 131 0.0 0.0 0.00 0.00 0.00 29 1009.2
20260503213556 30 104 0.0 0.0 0.00 0.00 0.00 28 1009.3
20260503213106 30 166 0.0 0.0 0.00 0.00 0.00 27 1009.4
20260503212555 30 125 0.0 0.0 0.00 0.00 0.00 29 1009.4
20260503212051 30 157 0.0 0.0 0.00 0.00 0.00 28 1009.7
20260503211551 30 155 0.0 0.0 0.00 0.00 0.00 27 1009.7
20260503211048 30 34 0.0 0.0 0.00 0.00 0.00 29 1009.8
20260503210550 30 94 0.0 0.0 0.00 0.00 0.00 28 1009.9
20260503210055 30 107 0.0 0.0 0.00 0.00 0.00 29 1010.0
20260503205547 30 180 0.0 0.0 0.00 0.00 0.00 29 1009.9
20260503205044 30 70 0.0 0.0 0.00 0.00 0.00 28 1010.0
20260503204550 30 148 0.0 0.0 0.00 0.00 0.00 29 1010.0
20260503204040 30 165 0.0 0.0 0.00 0.00 0.00 29 1010.1
20260503203538 30 67 0.0 0.0 0.00 0.00 0.00 30 1010.1
20260503203036 29 135 0.0 0.0 0.00 0.00 0.00 32 1010.1
20260503202535 29 132 0.0 0.0 0.00 0.00 0.00 32 1010.1
20260503202034 28 117 0.0 0.0 0.00 0.00 0.00 32 1010.1
20260503201532 28 191 0.0 0.0 0.00 0.00 0.00 32 1010.2
20260503201030 28 112 0.0 0.0 0.00 0.00 0.00 33 1010.4
20260503200529 28 109 0.0 0.0 0.00 0.00 0.00 32 1010.4
20260503200029 28 157 0.0 0.0 0.00 0.00 0.00 32 1010.5
20260503195526 28 148 0.0 0.0 0.00 0.00 0.00 32 1010.5
20260503195025 28 113 0.0 0.0 0.00 0.00 0.00 31 1010.6
20260503194525 28 144 0.0 0.0 0.00 0.00 0.00 33 1010.6
20260503194022 28 142 0.0 0.0 0.00 0.00 0.00 35 1010.6
20260503193521 27 156 0.0 0.0 0.00 0.00 0.00 34 1010.8
20260503193027 27 156 0.0 0.0 0.00 0.00 0.00 34 1010.9
20260503192517 27 161 0.0 0.0 0.00 0.00 0.00 35 1011.1
20260503192020 27 66 0.0 0.0 0.00 0.00 0.00 34 1011.1
20260503191516 26 125 0.0 0.0 0.00 0.00 0.00 36 1011.1
20260503191013 26 126 0.0 0.0 0.00 0.00 0.00 37 1011.2
20260503190513 26 351 0.0 0.0 0.00 0.00 0.00 42 1011.3
20260503190013 26 5 0.0 0.0 0.00 0.00 0.00 46 1011.3
20260503185508 25 5 0.0 0.0 0.00 0.00 0.00 46 1011.3
20260503185009 25 351 0.0 0.0 0.00 0.00 0.00 47 1011.5
20260503184508 25 36 0.0 0.0 0.00 0.00 0.00 50 1011.5
20260503184008 24 24 0.0 0.0 0.00 0.00 0.00 52 1011.6
20260503183503 24 24 0.0 0.0 0.00 0.00 0.00 48 1011.6
20260503183001 23 25 0.0 0.0 0.00 0.00 0.00 50 1011.7
20260503182559 23 40 0.0 0.0 0.00 0.00 0.00 51 1011.7
20260503182058 23 41 0.0 0.0 0.00 0.00 0.00 51 1011.8
20260503181559 23 41 0.0 0.0 0.00 0.00 0.00 52 1011.8
20260503181056 22 41 0.0 0.0 0.00 0.00 0.00 53 1011.9
20260503180557 22 10 0.0 0.0 0.00 0.00 0.00 54 1011.8
20260503180053 22 10 0.0 0.0 0.00 0.00 0.00 53 1011.9
20260503175550 22 17 0.0 0.0 0.00 0.00 0.00 56 1012.0
20260503175050 21 38 0.0 0.0 0.00 0.00 0.00 59 1012.0
20260503174548 21 349 0.0 0.0 0.00 0.00 0.00 58 1012.0
20260503174048 21 331 0.0 0.0 0.00 0.00 0.00 57 1012.1
20260503173545 20 269 0.0 0.0 0.00 0.00 0.00 58 1012.1
20260503173109 20 269 0.0 0.0 0.00 0.00 0.00 61 1012.1
20260503172547 20 269 0.0 0.0 0.00 0.00 0.00 60 1012.2
20260503172040 19 269 0.0 0.0 0.00 0.00 0.00 63 1012.2
20260503171541 18 269 0.0 0.0 0.00 0.00 0.00 66 1012.2
20260503171038 18 266 0.0 0.0 0.00 0.00 0.00 65 1012.3
20260503170536 18 266 0.0 0.0 0.00 0.00 0.00 66 1012.3
20260503151004 13 232 0.0 0.0 0.00 0.00 0.00 11 1012.8
20260503150603 13 232 0.0 0.0 0.00 0.00 0.00 9 1012.7
20260503131027 11 232 0.0 0.0 0.00 0.00 0.00 11 1012.3
20260503130525 11 232 0.0 0.0 0.00 0.00 0.00 9 1012.2
20260503110510 12 232 0.0 0.0 0.00 0.00 0.00 32 1012.1
20260503081551 14 232 0.0 0.0 0.00 0.00 0.00 36 1011.8
20260503081051 14 232 0.0 0.0 0.00 0.00 0.00 37 1011.7
20260503080651 14 232 0.0 0.0 0.00 0.00 0.00 38 1011.7
20260503072545 15 232 0.0 0.0 0.00 0.00 0.00 46 1011.7
20260503072043 15 232 0.0 0.0 0.00 0.00 0.00 48 1011.7
20260503071543 15 232 0.0 0.0 0.00 0.00 0.00 49 1011.8
20260503071041 15 232 0.0 0.0 0.00 0.00 0.00 50 1011.8
20260503070541 15 232 0.0 0.0 0.00 0.00 0.00 52 1011.7
20260503055037 17 232 0.0 0.0 0.00 0.00 0.00 63 1011.7
20260503054539 17 233 0.0 0.0 0.00 0.00 0.00 63 1011.7
20260503054037 17 233 0.0 0.0 0.00 0.00 0.00 64 1011.7
20260503053538 17 233 0.0 0.0 0.00 0.00 0.00 64 1011.7
20260503053039 17 233 0.0 0.0 0.00 0.00 0.00 64 1011.7
20260503052537 17 234 0.0 0.0 0.00 0.00 0.00 64 1011.7
20260503052037 17 234 0.0 0.0 0.00 0.00 0.00 64 1011.7
20260503051536 17 234 0.0 0.0 0.00 0.00 0.00 64 1011.6
20260503051037 17 234 0.0 0.0 0.00 0.00 0.00 64 1011.5
20260503050537 17 234 0.0 0.0 0.00 0.00 0.00 64 1011.6
20260503050036 17 234 0.0 0.0 0.00 0.00 0.00 64 1011.5
20260503045538 17 234 0.0 0.0 0.00 0.00 0.00 64 1011.6
20260503045038 17 234 0.0 0.0 0.00 0.00 0.00 64 1011.4
20260503044535 17 234 0.0 0.0 0.00 0.00 0.00 64 1011.5
20260503044034 17 234 0.0 0.0 0.00 0.00 0.00 64 1011.5
20260503043534 17 234 0.0 0.0 0.00 0.00 0.00 65 1011.4
20260503043040 17 277 0.0 0.0 0.00 0.00 0.00 65 1011.4
20260503042534 17 277 0.0 0.0 0.00 0.00 0.00 65 1011.3
20260503042034 17 277 0.0 0.0 0.00 0.00 0.00 65 1011.4
20260503041534 17 281 0.0 0.0 0.00 0.00 0.00 65 1011.3
20260503041033 17 281 0.0 0.0 0.00 0.00 0.00 66 1011.2
20260503040533 18 281 0.0 0.0 0.00 0.00 0.00 66 1011.1
20260503040045 18 281 0.0 0.0 0.00 0.00 0.00 66 1011.1
20260503035533 18 281 0.0 0.0 0.00 0.00 0.00 66 1010.9
20260503035033 18 281 0.0 0.0 0.00 0.00 0.00 65 1010.7
20260503034545 19 281 0.0 0.0 0.00 0.00 0.00 65 1010.6
20260503034032 19 281 0.0 0.0 0.00 0.00 0.00 65 1010.4
20260503033533 19 281 0.0 0.0 0.00 0.00 0.00 64 1010.4
20260503033039 20 281 0.0 0.0 0.00 0.00 0.00 63 1010.2
20260503032532 20 281 0.0 0.0 0.00 0.00 0.00 62 1010.2
20260503032034 20 281 0.0 0.0 0.00 0.00 0.00 61 1010.2
20260503031538 20 281 0.0 0.0 0.00 0.00 0.00 62 1009.9
20260503031032 21 281 0.0 0.0 0.00 0.00 0.00 60 1009.9
20260503030532 21 281 0.0 0.0 0.00 0.00 0.00 59 1009.9
20260503030045 21 281 0.0 0.0 0.00 0.00 0.00 58 1009.9
20260503025531 21 281 0.0 0.0 0.00 0.00 0.00 57 1009.8